This is the latest recevied weather packets stored in our database for station/object KI4BSX. If no packets are shown the sender has not sent any weather packets the latest 10 day(s).
| Time | Temp. | Humidity | Pressure | Rain* | Wind** | Luminosity | Snow |
|---|---|---|---|---|---|---|---|
| 1778094315 | 25.56° C | 69% | 1016.5 hPa | 0 mm | - | - | - |
| 1778094012 | 25.56° C | 68% | 1016.5 hPa | 0 mm | - | - | - |
| 1778093709 | 25.56° C | 68% | 1016.5 hPa | 0 mm | - | - | - |
| 1778093406 | 25.56° C | 69% | 1016.6 hPa | 0 mm | - | - | - |
| 1778093103 | 25.56° C | 68% | 1016.8 hPa | 0 mm | - | - | - |
| 1778092800 | 25.56° C | 67% | 1016.6 hPa | 0 mm | - | - | - |
| 1778092495 | 25.56° C | 67% | 1016.5 hPa | 0 mm | - | - | - |
| 1778092187 | 25.56° C | 66% | 1016.6 hPa | 0 mm | - | - | - |
| 1778091885 | 26.11° C | 66% | 1016.5 hPa | 0 mm | - | - | - |
| 1778091582 | 26.11° C | 66% | 1016.4 hPa | 0 mm | - | - | - |
| 1778091279 | 25.56° C | 66% | 1016.2 hPa | 0 mm | - | - | - |
| 1778090970 | 26.11° C | 65% | 1016.2 hPa | 0 mm | - | - | - |
| 1778090667 | 26.11° C | 65% | 1016.4 hPa | 0 mm | - | - | - |
| 1778090364 | 26.67° C | 65% | 1016.4 hPa | 0 mm | - | - | - |
| 1778090061 | 26.67° C | 66% | 1016.3 hPa | 0 mm | - | - | - |
| 1778089757 | 26.11° C | 67% | 1016.4 hPa | 0 mm | - | - | - |
| 1778089455 | 25° C | 66% | 1016.5 hPa | 0 mm | - | - | - |
| 1778089152 | 25.56° C | 66% | 1016.6 hPa | 0 mm | - | - | - |
| 1778088849 | 25.56° C | 66% | 1016.6 hPa | 0 mm | - | - | - |
| 1778088546 | 25.56° C | 66% | 1017 hPa | 0 mm | - | - | - |
| 1778088242 | 26.11° C | 65% | 1017.1 hPa | 0 mm | - | - | - |
| 1778087940 | 25.56° C | 66% | 1017 hPa | 0 mm | - | - | - |
| 1778087636 | 26.11° C | 66% | 1017 hPa | 0 mm | - | - | - |
| 1778087334 | 25.56° C | 67% | 1017.3 hPa | 0 mm | - | - | - |
| 1778087030 | 25° C | 68% | 1017 hPa | 0 mm | - | - | - |
* Rain latest hour (hover to see other rain measurements)
** Current wind speed in m/s (hover to see current wind gust speed)